Lincoln Laboratory Near-Earth Asteroid Research project
軌道要素
Epoch 2000 Dec. 2.0 TT = JDT 2451880.5
T 2000 Dec. 10.32599 TT MPC
q 1.9337753 (2000.0) P Q
n 0.06861056 Peri. 222.94789 +0.93163866 -0.36228348
a 5.9093819 Node 158.24399 +0.35065199 +0.87583810
e 0.6727618 Incl. 4.37669 +0.09535509 +0.31883899
P 14.4
From 31 observations 2000 Aug. 24-2014 July 26, mean residual 0".7.